Weather History for Peru, IN

Change the Weather History Date:

Saturday, January 25, 2014

  Actual Average Record
Temperature  
Mean Temperature 18 °F -  
Max Temperature 30 °F 30 °F 50 °F (1997)
Min Temperature 2 °F 16 °F -4 °F (2008)
Degree Days  
Heating Degree Days 48    
Moisture  
Dew Point 20 °F    
Average Humidity 93    
Maximum Humidity 100    
Minimum Humidity 62    
Precipitation  
Precipitation 0.07 in - - ()
Snow  
Snow 0.00 in - - ()
Snow Depth 7.00 in    
Sea Level Pressure  
Sea Level Pressure 29.54 in    
Wind  
Wind Speed 25 mph (WSW)    
Max Wind Speed 31 mph    
Max Gust Speed 39 mph    
Visibility 4 miles    
Events Snow    
Averages and records for this station are not official NWS values.
T = Trace of Precipitation, MM = Missing Value Source: NWS Daily Summary

Daily Weather History Graph

Daily Weather History Graph

Search for Another Location

Airport:

Trip Planner

Search our weather history database for the weather conditions in past years. The results will help you decide how hot, cold, wet, or windy it might be!

Date:

Astronomy

Jan. 25, 2014 Rise Set
Actual Time 8:00 AM EST 5:53 PM EST
Civil Twilight 7:31 AM EST 6:23 PM EST
Nautical Twilight 6:57 AM EST 6:56 PM EST
Astronomical Twilight 6:25 AM EST 7:28 PM EST
Moon 2:31 AM EST (1/25) 12:54 PM EST (1/25)
Length of Visible Light 10h 52m
Length of Day
9h 53m
Waning Crescent, 34% of the Moon is Illuminated
Jan 25
Waning Crescent
Jan 30
New
Feb 6
First Quarter
Feb 14
Full
Feb 22
Last Quarter

Hourly Weather History & Observations

Time (EST) Temp. Windchill Dew Point Humidity Pressure Visibility Wind Dir Wind Speed Gust Speed Precip Events Conditions
12:08 AM 19.4 °F 0.8 °F 19.4 °F 100% 29.64 in 2.0 mi SW 28.8 mph 35.7 mph N/A Snow Light Snow
12:13 AM 19.4 °F 2.1 °F 19.4 °F 100% 29.64 in 1.8 mi SW 24.2 mph 34.5 mph N/A Snow Light Snow
12:23 AM 19.4 °F 0.8 °F 19.4 °F 100% 29.63 in 1.5 mi SW 28.8 mph 34.5 mph N/A Snow Light Snow
12:38 AM 19.4 °F 0.8 °F 19.4 °F 100% 29.62 in 1.2 mi SW 28.8 mph 34.5 mph N/A Snow Light Snow
12:53 AM 19.4 °F 1.1 °F 19.4 °F 100% 29.60 in 1.5 mi SW 27.6 mph 33.4 mph N/A Snow Light Snow
12:58 AM 19.9 °F 2.5 °F 19.9 °F 100% 29.65 in 1.5 mi SW 25.3 mph 32.2 mph 0.01 in Snow Light Snow
1:18 AM 19.4 °F 1.4 °F 19.4 °F 100% 29.58 in 1.5 mi SW 26.5 mph 33.4 mph N/A Snow Light Snow
1:23 AM 19.4 °F 1.8 °F 19.4 °F 100% 29.58 in 1.8 mi SW 25.3 mph 33.4 mph N/A Snow Light Snow
1:58 AM 20.5 °F 2.9 °F 20.5 °F 100% 29.60 in 1.5 mi SW 26.5 mph 34.5 mph 0.00 in Snow Light Snow
2:03 AM 21.2 °F 3.3 °F 21.2 °F 100% 29.54 in 1.5 mi SW 28.8 mph 34.5 mph N/A Snow Light Snow
2:18 AM 21.2 °F 3.9 °F 21.2 °F 100% 29.53 in 2.0 mi SW 26.5 mph 33.4 mph N/A Snow Light Snow
2:23 AM 21.2 °F 3.5 °F 21.2 °F 100% 29.53 in 2.5 mi SW 27.6 mph 39.1 mph N/A Snow Light Snow
2:33 AM 21.2 °F 3.0 °F 21.2 °F 100% 29.52 in 2.5 mi SW 29.9 mph 38.0 mph N/A Snow Light Snow
2:38 AM 21.2 °F 3.3 °F 21.2 °F 100% 29.52 in 2.0 mi SW 28.8 mph 38.0 mph N/A Snow Light Snow
2:48 AM 21.2 °F 3.0 °F 21.2 °F 100% 29.51 in 1.8 mi SW 29.9 mph 39.1 mph N/A Snow Light Snow
2:58 AM 21.4 °F 2.9 °F 21.4 °F 100% 29.56 in 1.5 mi SW 31.1 mph 38.0 mph 0.00 in Snow Light Snow
3:08 AM 21.2 °F 3.5 °F 21.2 °F 100% 29.51 in 2.0 mi SW 27.6 mph 38.0 mph N/A Snow Light Snow
3:13 AM 21.2 °F 3.5 °F 21.2 °F 100% 29.50 in 1.8 mi SW 27.6 mph 35.7 mph N/A Snow Light Snow
3:18 AM 21.2 °F 3.0 °F 21.2 °F 100% 29.50 in 1.2 mi SW 29.9 mph 35.7 mph N/A Snow Light Snow
3:23 AM 21.2 °F 3.9 °F 21.2 °F 100% 29.50 in 1.0 mi SW 26.5 mph 36.8 mph N/A Snow Light Snow
3:33 AM 21.2 °F 4.5 °F 21.2 °F 100% 29.49 in 1.2 mi SW 24.2 mph - N/A Snow Light Snow
3:38 AM 21.2 °F 3.5 °F 21.2 °F 100% 29.49 in 1.5 mi SW 27.6 mph 33.4 mph N/A Snow Light Snow
3:48 AM 21.2 °F 3.3 °F 21.2 °F 100% 29.49 in 1.2 mi SW 28.8 mph 39.1 mph N/A Snow Light Snow
3:58 AM 21.9 °F 3.7 °F 21.9 °F 100% 29.53 in 1.2 mi SW 31.1 mph 36.8 mph 0.00 in Snow Light Snow
4:03 AM 21.2 °F 3.0 °F 21.2 °F 100% 29.48 in 1.5 mi SW 29.9 mph 36.8 mph N/A Snow Light Snow
4:05 AM 21.2 °F 3.0 °F 21.2 °F 100% 29.48 in 1.8 mi SW 29.9 mph 36.8 mph N/A Snow Light Snow
4:10 AM 21.2 °F 3.3 °F 21.2 °F 100% 29.48 in 2.0 mi SW 28.8 mph 35.7 mph N/A Snow Light Snow
4:15 AM 21.2 °F 4.2 °F 21.2 °F 100% 29.48 in 1.8 mi SW 25.3 mph - N/A Snow Light Snow
4:20 AM 23.0 °F 6.9 °F 23.0 °F 100% 29.47 in 2.0 mi SW 24.2 mph - N/A Snow Light Snow
4:30 AM 23.0 °F 7.2 °F 23.0 °F 100% 29.47 in 2.0 mi SW 23.0 mph - N/A Snow Light Snow
4:35 AM 23.0 °F 6.6 °F 23.0 °F 100% 29.46 in 2.0 mi SW 25.3 mph - N/A Snow Light Snow
4:40 AM 23.0 °F 6.9 °F 23.0 °F 100% 29.46 in 1.5 mi SW 24.2 mph - N/A Snow Light Snow
4:55 AM 23.0 °F 6.9 °F 23.0 °F 100% 29.45 in 1.2 mi SW 24.2 mph 33.4 mph N/A Snow Light Snow
4:58 AM 22.6 °F 6.4 °F 22.6 °F 100% 29.50 in 1.2 mi SW 24.2 mph 33.4 mph 0.00 in Snow Light Snow
5:03 AM 23.0 °F 6.6 °F 23.0 °F 100% 29.45 in 1.5 mi SW 25.3 mph - N/A Snow Light Snow
5:43 AM 23.0 °F 5.4 °F 23.0 °F 100% 29.43 in 1.2 mi SW 29.9 mph - N/A Snow Light Snow
5:48 AM 23.0 °F 5.7 °F 23.0 °F 100% 29.43 in 1.5 mi SW 28.8 mph 33.4 mph N/A Snow Light Snow
5:53 AM 23.0 °F 5.7 °F 23.0 °F 100% 29.43 in 2.0 mi WSW 28.8 mph 34.5 mph N/A Snow Light Snow
5:58 AM 23.9 °F 7.2 °F 23.9 °F 100% 29.48 in 2.5 mi SW 27.6 mph 34.5 mph 0.00 in Snow Light Snow
6:03 AM 24.8 °F 8.4 °F 24.8 °F 100% 29.42 in 3.0 mi SW 27.6 mph 33.4 mph N/A Snow Light Snow
6:08 AM 24.8 °F 8.4 °F 24.8 °F 100% 29.42 in 2.5 mi SW 27.6 mph 36.8 mph N/A Snow Light Snow
6:18 AM 24.8 °F 7.6 °F 24.8 °F 100% 29.42 in 3.0 mi SW 31.1 mph 36.8 mph N/A Snow Light Snow
6:23 AM 24.8 °F 8.1 °F 24.8 °F 100% 29.42 in 3.0 mi WSW 28.8 mph 36.8 mph N/A Snow Light Snow
6:33 AM 24.8 °F 9.6 °F 24.8 °F 100% 29.42 in 4.0 mi WSW 23.0 mph - N/A Snow Light Snow
6:38 AM 24.8 °F 9.0 °F 24.8 °F 100% 29.42 in 5.0 mi WSW 25.3 mph 32.2 mph N/A Snow Light Snow
6:43 AM 24.8 °F 9.3 °F 24.8 °F 100% 29.42 in 5.0 mi WSW 24.2 mph 32.2 mph N/A Snow Light Snow
6:48 AM 24.8 °F 9.6 °F 24.8 °F 100% 29.42 in 5.0 mi WSW 23.0 mph 31.1 mph N/A Snow Light Snow
6:53 AM 24.8 °F 10.0 °F 24.8 °F 100% 29.42 in 5.0 mi WSW 21.9 mph - N/A Snow Light Snow
6:58 AM 25.0 °F 9.9 °F 25.0 °F 100% 29.47 in 6.0 mi WSW 23.0 mph - 0.01 in Snow Light Snow
7:16 AM 24.8 °F 10.0 °F 24.8 °F 100% 29.42 in 6.0 mi WSW 21.9 mph 32.2 mph N/A Snow Light Snow
7:58 AM 28.4 °F 16.6 °F 28.4 °F 100% 29.46 in 7.0 mi WSW 16.1 mph - 0.01 in Snow Light Snow
8:58 AM 28.8 °F 17.9 °F 28.8 °F 100% 29.47 in 1.2 mi West 13.8 mph - 0.01 in Snow Light Snow
9:03 AM 28.4 °F 17.5 °F 28.4 °F 100% 29.43 in 4.0 mi West 13.8 mph - N/A Snow Light Snow
9:08 AM 28.4 °F 17.0 °F 28.4 °F 100% 29.43 in 10.0 mi West 15.0 mph - N/A Snow Light Snow
9:17 AM 30.2 °F 18.9 °F 30.2 °F 100% 29.43 in 8.0 mi West 16.1 mph - N/A   Mostly Cloudy
9:27 AM 30.2 °F 18.5 °F 28.4 °F 93% 29.44 in 4.0 mi WNW 17.3 mph 24.2 mph N/A   Mostly Cloudy
9:54 AM 28.4 °F 15.1 °F 26.6 °F 93% 29.44 in 3.0 mi WNW 20.7 mph 28.8 mph N/A Snow Light Snow
9:58 AM 28.4 °F 15.4 °F 26.6 °F 93% 29.48 in 1.8 mi WNW 19.6 mph 28.8 mph 0.01 in Snow Light Snow
10:30 AM 26.6 °F 12.7 °F 24.8 °F 93% 29.46 in 3.0 mi WNW 20.7 mph - N/A   Scattered Clouds
10:58 AM 27.5 °F 12.9 °F 24.1 °F 87% 29.51 in 2.0 mi WNW 24.2 mph 38.0 mph 0.00 in Snow Light Snow
11:08 AM 28.4 °F 12.7 °F 23.0 °F 80% 29.47 in 2.5 mi WNW 29.9 mph 38.0 mph N/A Snow Light Snow
11:13 AM 26.6 °F 11.4 °F 23.0 °F 86% 29.47 in 2.0 mi WNW 25.3 mph 38.0 mph N/A Snow Light Snow
11:18 AM 28.4 °F 15.1 °F 23.0 °F 80% 29.48 in 2.5 mi WNW 20.7 mph 34.5 mph N/A Snow Light Snow
11:23 AM 28.4 °F 14.1 °F 24.8 °F 86% 29.48 in 5.0 mi WNW 24.2 mph 31.1 mph N/A Snow Light Snow
11:58 AM 26.8 °F 11.9 °F 23.7 °F 88% 29.55 in 1.0 mi NNW 24.2 mph 36.8 mph 0.02 in Snow Snow
12:08 PM 23.0 °F 8.3 °F 21.2 °F 93% 29.51 in 0.8 mi NNW 19.6 mph 29.9 mph N/A Snow Light Snow
12:13 PM 23.0 °F 8.3 °F 21.2 °F 93% 29.51 in 1.0 mi NW 19.6 mph 28.8 mph N/A Snow Light Snow
12:18 PM 23.0 °F 8.3 °F 21.2 °F 93% 29.52 in 1.2 mi NW 19.6 mph 28.8 mph N/A Snow Light Snow
12:23 PM 23.0 °F 8.3 °F 19.4 °F 86% 29.52 in 1.5 mi NW 19.6 mph 27.6 mph N/A Snow Light Snow
12:28 PM 23.0 °F 8.3 °F 17.6 °F 80% 29.52 in 7.0 mi NW 19.6 mph 27.6 mph N/A Snow Light Snow
12:58 PM 22.3 °F 7.4 °F 16.7 °F 79% 29.58 in 5.0 mi NNW 19.6 mph 29.9 mph 0.00 in Snow Light Snow
1:58 PM 20.8 °F 4.4 °F 9.7 °F 62% 29.61 in - NW 23.0 mph 33.4 mph 0.00 in Snow Light Snow
2:04 PM 21.2 °F 5.2 °F 10.4 °F 63% 29.57 in 10.0 mi NNW 21.9 mph 28.8 mph N/A   Overcast
2:58 PM 19.6 °F 3.1 °F 9.0 °F 63% 29.65 in 10.0 mi NW 21.9 mph 33.4 mph 0.00 in   Mostly Cloudy
3:57 PM 18.3 °F 1.4 °F 7.7 °F 63% 29.69 in 10.0 mi WNW 21.9 mph 33.4 mph N/A   Partly Cloudy
4:58 PM 15.6 °F -2.9 °F 5.4 °F 64% 29.75 in 10.0 mi WNW 24.2 mph 29.9 mph N/A   Partly Cloudy
5:58 PM 12.9 °F -4.9 °F 4.1 °F 68% 29.80 in 10.0 mi WNW 19.6 mph - N/A   Clear
6:58 PM 10.8 °F -7.7 °F 1.6 °F 67% 29.84 in 10.0 mi WNW 19.6 mph - N/A   Clear
7:57 PM 9.1 °F -4.9 °F 0.5 °F 68% 29.87 in 10.0 mi West 10.4 mph - N/A   Clear
8:58 PM 7.9 °F -9.9 °F 1.0 °F 74% 29.89 in 10.0 mi West 16.1 mph - N/A   Clear
9:58 PM 6.8 °F -8.6 °F 0.5 °F 75% 29.90 in 10.0 mi West 11.5 mph - N/A   Clear
10:58 PM 5.0 °F -6.9 °F -1.1 °F 76% 29.91 in 10.0 mi West 6.9 mph - N/A   Clear
11:58 PM 2.3 °F -8.8 °F -2.0 °F 82% 29.90 in 10.0 mi West 5.8 mph - N/A   Clear